Simultaneous Nadir Overpasses (SNOs) Predictions

Prediction of SNOs between METOP-A and TERRA Satellite Orbit:

Table of predicted SNOs for the next 14.0 days since TLE Epoch: 2/14/2015
Index Date (METOP-A) Time (METOP-A) Lat,Lon (METOP-A) SZA (METOP-A ) Date (TERRA) Time (TERRA) Lat,Lon (TERRA) SZA (TERRA ) Distance(km) Time Diff (sec)
1 02/15/2015 20:41:26 -81.31, 96.68 83.83 02/15/2015 20:41:35 -81.31, 96.84 83.81 2.68 9
2 02/15/2015 21:32:06 81.32, -95.54 96.21 02/15/2015 21:31:01 81.32, -95.46 96.19 1.37 65
3 02/18/2015 15:25:08 81.31, -4.20 95.22 02/18/2015 15:26:21 81.32, -4.28 95.24 1.46 73
4 02/18/2015 16:15:48 -81.32, 163.35 84.78 02/18/2015 16:15:48 -81.32, 163.34 84.78 0.14 0
5 02/18/2015 17:06:16 81.35, -24.16 95.79 02/18/2015 17:05:02 81.54, -24.29 95.87 20.77 74
6 02/
